M I D A S
Marine Information and Data Acquisition System
Tripno 1685 of the Zeeleeuw from 2009-04-30 07:18:56 to 2009-04-30 13:35:03
Back to CruiseResearch ActivitiesStationsMapUnderway DataData graphs

EquipmentUnitsComments
TimeDGPSUTC
LatitudeDGPSDM.mWGS84
LongitudeDGPSDM.mWGS84
SpeedMeteo Stationm/sRelative wind speed
DirectionMeteo StationdegRelative wind direction
TemperatureMeteo Stationdeg CelciusAir temperature
PressureMeteo StationPaAtmospheric pressure
HumidityMeteo Station%Relative humidity
Missing or incorrect values are displayed as -999
Metereological data collected by the RV Zeeleeuw from 2009-04-30 07:12:34 to 2009-04-30 13:46:19
                                                                                    Next 1000 lines
Time Latitude Longitude Speed Direction Temperature Pressure Humidity
2009-04-30 07:12:44 51°13.662 2°55.956 1.5 2 12 101680 74
2009-04-30 07:12:49 51°13.662 2°55.955 1.6 358 12 101680 74
2009-04-30 07:12:54 51°13.662 2°55.953 1.6 351 12 101680 74
2009-04-30 07:12:59 51°13.663 2°55.951 1.7 354 12 101680 74
2009-04-30 07:13:03 51°13.664 2°55.949 1.5 358 12 101680 74
2009-04-30 07:13:09 51°13.664 2°55.946 1.2 358 12 101680 74
2009-04-30 07:13:14 51°13.665 2°55.943 1.4 358 12 101690 75
2009-04-30 07:13:19 51°13.665 2°55.94 0.9 358 12 101690 75
2009-04-30 07:13:24 51°13.666 2°55.937 1.1 358 12.1 101680 75
2009-04-30 07:13:30 51°13.668 2°55.933 1.7 -999 12.1 101680 75
2009-04-30 07:13:35 51°13.67 2°55.929 1.5 6 12.1 101680 75
2009-04-30 07:13:41 51°13.671 2°55.925 1.4 15 12.1 101680 75
2009-04-30 07:13:47 51°13.672 2°55.92 1.3 16 12.1 101690 76
2009-04-30 07:13:52 51°13.673 2°55.916 1 15 12.1 101690 76
2009-04-30 07:13:58 51°13.674 2°55.91 1.3 24 12.1 101690 76
2009-04-30 07:14:02 51°13.675 2°55.907 1 29 12.1 101690 76
2009-04-30 07:14:07 51°13.676 2°55.902 1.1 24 12.1 101690 76
2009-04-30 07:14:13 51°13.677 2°55.896 1 33 12.1 101690 76
2009-04-30 07:14:17 51°13.678 2°55.892 1 43 12.2 101690 76
2009-04-30 07:14:23 51°13.679 2°55.886 1.1 42 12.2 101690 76
2009-04-30 07:14:27 51°13.68 2°55.882 1 22 12.2 101690 75
2009-04-30 07:14:33 51°13.681 2°55.875 1.3 20 12.2 101690 75
2009-04-30 07:14:38 51°13.682 2°55.869 1.3 20 12.2 101680 75
2009-04-30 07:14:42 51°13.683 2°55.865 1.4 26 12.2 101680 75
2009-04-30 07:14:47 51°13.684 2°55.859 0.9 26 12.2 101690 74
2009-04-30 07:14:53 51°13.685 2°55.851 0.6 26 12.2 101690 74
2009-04-30 07:14:58 51°13.686 2°55.845 0.9 30 12.2 101680 74
2009-04-30 07:15:02 51°13.686 2°55.84 0.9 58 12.2 101680 74
2009-04-30 07:15:07 51°13.687 2°55.833 1.3 25 12.2 101690 74
2009-04-30 07:15:13 51°13.688 2°55.825 1.4 45 12.2 101690 74
2009-04-30 07:15:18 51°13.689 2°55.818 2.3 33 12.2 101690 74
2009-04-30 07:15:22 51°13.689 2°55.812 2.3 32 12.2 101690 74
2009-04-30 07:15:27 51°13.69 2°55.805 1.9 30 12.2 101690 73
2009-04-30 07:15:33 51°13.691 2°55.798 2 28 12.2 101690 73
2009-04-30 07:15:38 51°13.692 2°55.791 2.4 31 12.2 101690 73
2009-04-30 07:15:42 51°13.692 2°55.787 2 32 12.2 101690 73
2009-04-30 07:15:47 51°13.692 2°55.781 2.2 41 12.2 101690 72
2009-04-30 07:15:52 51°13.692 2°55.776 2.8 39 12.2 101690 72
2009-04-30 07:15:58 51°13.692 2°55.77 2.5 39 12.1 101690 72
2009-04-30 07:16:02 51°13.692 2°55.766 2.8 37 12.1 101690 72
2009-04-30 07:16:07 51°13.692 2°55.761 3 42 12.1 101690 72
2009-04-30 07:16:12 51°13.693 2°55.758 2.7 41 12.1 101690 72
2009-04-30 07:16:17 51°13.693 2°55.756 2.6 41 12.2 101690 71
2009-04-30 07:16:22 51°13.694 2°55.754 2.3 41 12.2 101690 71
2009-04-30 07:16:27 51°13.694 2°55.754 2.1 38 12.1 101690 71
2009-04-30 07:16:31 51°13.695 2°55.755 1.8 31 12.1 101690 71
2009-04-30 07:16:36 51°13.696 2°55.756 2.7 26 12.1 101690 71
2009-04-30 07:16:41 51°13.698 2°55.758 2.2 26 12.1 101690 71
2009-04-30 07:16:47 51°13.7 2°55.76 2.2 29 12.1 101690 71
2009-04-30 07:16:51 51°13.702 2°55.762 1.8 30 12.1 101690 71
2009-04-30 07:16:56 51°13.704 2°55.764 2.1 30 12.1 101690 71
2009-04-30 07:17:01 51°13.707 2°55.765 2.1 38 12.1 101690 71
2009-04-30 07:17:06 51°13.709 2°55.766 2.4 40 12.1 101690 71
2009-04-30 07:17:11 51°13.711 2°55.767 2.3 41 12.1 101690 71
2009-04-30 07:17:16 51°13.713 2°55.768 2.4 45 12.1 101690 71
2009-04-30 07:17:21 51°13.714 2°55.768 2 58 12.1 101690 71
2009-04-30 07:17:26 51°13.715 2°55.768 1.8 27 12.1 101690 71
2009-04-30 07:17:31 51°13.715 2°55.767 1.5 57 12.1 101690 71
2009-04-30 07:17:36 51°13.715 2°55.767 2.1 25 12.1 101690 71
2009-04-30 07:17:41 51°13.715 2°55.767 2.5 56 12.1 101690 71
2009-04-30 07:17:46 51°13.714 2°55.767 2 25 12.1 101690 71
2009-04-30 07:17:51 51°13.713 2°55.766 1.7 52 12.1 101690 71
2009-04-30 07:17:56 51°13.711 2°55.766 1.3 22 12.1 101690 71
2009-04-30 07:18:02 51°13.709 2°55.765 2.2 57 12.1 101690 71
2009-04-30 07:18:07 51°13.707 2°55.765 2.2 25 12.1 101690 71
2009-04-30 07:18:12 51°13.706 2°55.765 1.8 56 12.1 101690 71
2009-04-30 07:18:18 51°13.704 2°55.765 2.8 28 12.1 101690 72
2009-04-30 07:18:22 51°13.704 2°55.765 2.1 55 12.1 101690 72
2009-04-30 07:18:27 51°13.705 2°55.764 1.8 23 12.2 101690 72
2009-04-30 07:18:33 51°13.707 2°55.763 1.8 54 12.2 101690 72
2009-04-30 07:18:38 51°13.709 2°55.761 1.5 27 12.1 101690 72
2009-04-30 07:18:42 51°13.711 2°55.76 1.3 57 12.1 101690 72
2009-04-30 07:18:47 51°13.715 2°55.756 1.8 27 12.1 101690 71
2009-04-30 07:18:52 51°13.719 2°55.752 1.6 55 12.1 101690 71
2009-04-30 07:18:57 51°13.724 2°55.748 1.8 25 12.1 101690 71
2009-04-30 07:19:02 51°13.729 2°55.743 1 55 12.1 101690 71
2009-04-30 07:19:07 51°13.734 2°55.737 0.8 260 12.2 101690 71
2009-04-30 07:19:12 51°13.739 2°55.731 0.9 302 12.2 101690 71
2009-04-30 07:19:17 51°13.745 2°55.724 0.8 19 12.2 101700 71
2009-04-30 07:19:22 51°13.751 2°55.716 0.9 311 12.2 101700 71
2009-04-30 07:19:27 51°13.756 2°55.709 1 20 12.2 101690 71
2009-04-30 07:19:32 51°13.762 2°55.703 1.1 301 12.2 101690 71
2009-04-30 07:19:37 51°13.768 2°55.696 0.7 26 12.2 101700 71
2009-04-30 07:19:42 51°13.774 2°55.69 0.3 302 12.2 101700 71
2009-04-30 07:19:47 51°13.78 2°55.684 0.2 27 12.2 101700 71
2009-04-30 07:19:52 51°13.786 2°55.678 0.3 302 12.2 101700 71
2009-04-30 07:19:57 51°13.792 2°55.672 0.2 19 12.2 101700 71
2009-04-30 07:20:02 51°13.798 2°55.667 0.8 304 12.2 101700 71
2009-04-30 07:20:07 51°13.804 2°55.662 0.9 19 12.2 101700 71
2009-04-30 07:20:12 51°13.81 2°55.657 1.1 309 12.2 101700 71
2009-04-30 07:20:17 51°13.816 2°55.653 0.7 20 12.2 101700 71
2009-04-30 07:20:22 51°13.822 2°55.649 0.4 305 12.2 101700 71
2009-04-30 07:20:27 51°13.828 2°55.645 0.6 18 12.3 101700 72
2009-04-30 07:20:32 51°13.835 2°55.642 0.6 311 12.3 101700 72
2009-04-30 07:20:37 51°13.841 2°55.639 0.5 19 12.3 101700 72
2009-04-30 07:20:42 51°13.848 2°55.635 1.4 307 12.3 101700 72
2009-04-30 07:20:47 51°13.856 2°55.632 1.8 21 12.3 101700 72
2009-04-30 07:20:51 51°13.863 2°55.629 1.9 305 12.3 101700 72
2009-04-30 07:20:56 51°13.872 2°55.625 1.9 20 12.3 101700 71
2009-04-30 07:21:02 51°13.883 2°55.62 2.4 311 12.3 101700 71
2009-04-30 07:21:07 51°13.893 2°55.617 2.5 20 12.4 101700 71
2009-04-30 07:21:13 51°13.904 2°55.611 2.4 304 12.4 101700 71
2009-04-30 07:21:18 51°13.914 2°55.606 1.8 26 12.4 101700 71
2009-04-30 07:21:22 51°13.921 2°55.602 2.6 302 12.4 101700 71
2009-04-30 07:21:27 51°13.931 2°55.596 2.2 19 12.4 101700 71
2009-04-30 07:21:33 51°13.942 2°55.589 1.7 303 12.4 101700 71
2009-04-30 07:21:37 51°13.95 2°55.583 2.4 25 12.4 101700 71
2009-04-30 07:21:42 51°13.959 2°55.576 2.3 304 12.4 101700 71
2009-04-30 07:21:47 51°13.968 2°55.568 2.1 19 12.5 101700 71
2009-04-30 07:21:52 51°13.978 2°55.56 2.9 302 12.5 101700 71
2009-04-30 07:21:57 51°13.987 2°55.552 2.2 28 12.5 101700 70
2009-04-30 07:22:02 51°13.996 2°55.544 1.3 302 12.5 101700 70
2009-04-30 07:22:07 51°14.005 2°55.536 1.9 25 12.5 101700 70
2009-04-30 07:22:12 51°14.015 2°55.527 1.9 305 12.5 101700 70
2009-04-30 07:22:17 51°14.024 2°55.519 1.4 19 12.5 101700 70
2009-04-30 07:22:22 51°14.034 2°55.51 0.9 303 12.5 101700 70
2009-04-30 07:22:27 51°14.044 2°55.501 0.8 21 12.5 101700 70
2009-04-30 07:22:32 51°14.054 2°55.491 1.4 304 12.5 101700 70
2009-04-30 07:22:37 51°14.064 2°55.481 1.6 25 12.5 101700 69
2009-04-30 07:22:42 51°14.075 2°55.471 2.2 310 12.5 101700 69
2009-04-30 07:22:47 51°14.086 2°55.461 2.3 320 12.5 101700 69
2009-04-30 07:22:51 51°14.095 2°55.452 2.6 321 12.5 101700 69
2009-04-30 07:22:57 51°14.109 2°55.439 2.7 322 12.6 101700 69
2009-04-30 07:23:02 51°14.12 2°55.428 2.9 308 12.6 101700 69
2009-04-30 07:23:07 51°14.131 2°55.416 3.9 323 12.6 101700 69
2009-04-30 07:23:11 51°14.141 2°55.407 3.2 306 12.6 101700 69
2009-04-30 07:23:16 51°14.152 2°55.396 3.6 317 12.6 101700 69
2009-04-30 07:23:21 51°14.164 2°55.384 3.2 302 12.6 101700 69
2009-04-30 07:23:27 51°14.178 2°55.37 2.6 19 12.6 101700 69
2009-04-30 07:23:31 51°14.187 2°55.36 2.6 302 12.6 101700 69
2009-04-30 07:23:36 51°14.199 2°55.347 3 321 12.6 101700 68
2009-04-30 07:23:41 51°14.21 2°55.334 3.3 325 12.6 101700 68
2009-04-30 07:23:46 51°14.222 2°55.32 4 320 12.6 101700 68
2009-04-30 07:23:51 51°14.233 2°55.305 3.8 304 12.6 101700 68
2009-04-30 07:23:56 51°14.244 2°55.289 3.9 321 12.6 101700 68
2009-04-30 07:24:01 51°14.254 2°55.272 3.5 322 12.6 101700 68
2009-04-30 07:24:06 51°14.265 2°55.254 4.7 318 12.6 101700 68
2009-04-30 07:24:11 51°14.275 2°55.236 3.6 324 12.6 101700 68
2009-04-30 07:24:15 51°14.283 2°55.221 3.6 319 12.6 101700 68
2009-04-30 07:24:20 51°14.294 2°55.201 4.3 309 12.6 101700 68
2009-04-30 07:24:25 51°14.305 2°55.181 5.2 321 12.6 101700 68
2009-04-30 07:24:31 51°14.317 2°55.156 5.6 305 12.6 101700 68
2009-04-30 07:24:35 51°14.325 2°55.14 6.2 22 12.6 101700 68
2009-04-30 07:24:40 51°14.335 2°55.119 4.9 302 12.6 101700 68
2009-04-30 07:24:45 51°14.346 2°55.098 4.3 324 12.6 101690 68
2009-04-30 07:24:50 51°14.354 2°55.076 5.3 303 12.6 101690 68
2009-04-30 07:24:55 51°14.363 2°55.053 7.2 324 12.6 101700 68
2009-04-30 07:25:00 51°14.371 2°55.029 6.5 306 12.6 101700 68
2009-04-30 07:25:05 51°14.379 2°55.006 6.7 317 12.6 101690 68
2009-04-30 07:25:10 51°14.387 2°54.983 5.5 303 12.6 101690 68
2009-04-30 07:25:15 51°14.394 2°54.959 5.8 21 12.6 101690 68
2009-04-30 07:25:19 51°14.401 2°54.94 6.4 303 12.6 101690 68
2009-04-30 07:25:24 51°14.409 2°54.917 6.4 25 12.6 101690 68
2009-04-30 07:25:29 51°14.417 2°54.893 5.2 307 12.6 101690 68
2009-04-30 07:25:34 51°14.425 2°54.869 7.1 23 12.6 101690 67
2009-04-30 07:25:39 51°14.433 2°54.845 6.2 302 12.6 101690 67
2009-04-30 07:25:44 51°14.442 2°54.822 5.4 21 12.6 101690 67
2009-04-30 07:25:49 51°14.451 2°54.799 7 303 12.6 101690 67
2009-04-30 07:25:54 51°14.46 2°54.776 7.3 26 12.6 101690 67
2009-04-30 07:25:59 51°14.469 2°54.753 6.8 302 12.6 101690 67
2009-04-30 07:26:04 51°14.478 2°54.73 5.5 21 12.6 101690 67
2009-04-30 07:26:09 51°14.487 2°54.707 5.9 304 12.6 101690 67
2009-04-30 07:26:14 51°14.497 2°54.684 5 27 12.6 101690 67
2009-04-30 07:26:19 51°14.506 2°54.661 6.1 309 12.6 101690 67
2009-04-30 07:26:24 51°14.516 2°54.638 5.2 24 12.6 101690 67
2009-04-30 07:26:29 51°14.526 2°54.615 5.1 303 12.6 101690 67
2009-04-30 07:26:34 51°14.535 2°54.593 6.6 26 12.6 101690 67
2009-04-30 07:26:39 51°14.546 2°54.57 5.6 304 12.6 101690 67
2009-04-30 07:26:43 51°14.554 2°54.553 5.9 27 12.6 101690 67
2009-04-30 07:26:49 51°14.565 2°54.525 4.6 309 12.6 101690 67
2009-04-30 07:26:54 51°14.576 2°54.503 5.3 21 12.6 101690 67
2009-04-30 07:26:59 51°14.586 2°54.481 4.5 310 12.6 101690 67
2009-04-30 07:27:04 51°14.597 2°54.46 5.8 22 12.6 101690 68
2009-04-30 07:27:09 51°14.608 2°54.438 5.3 310 12.6 101690 68
2009-04-30 07:27:14 51°14.619 2°54.418 4.5 317 12.6 101700 68
2009-04-30 07:27:19 51°14.631 2°54.399 4.2 309 12.6 101700 68
2009-04-30 07:27:23 51°14.641 2°54.385 4.6 316 12.6 101700 68
2009-04-30 07:27:29 51°14.657 2°54.364 4.9 308 12.6 101700 68
2009-04-30 07:27:34 51°14.67 2°54.348 3.9 318 12.6 101700 69
2009-04-30 07:27:39 51°14.684 2°54.333 4.2 305 12.6 101700 69
2009-04-30 07:27:44 51°14.698 2°54.319 4.9 24 12.6 101700 69
2009-04-30 07:27:49 51°14.713 2°54.306 4.6 303 12.6 101700 69
2009-04-30 07:27:54 51°14.728 2°54.294 4.3 25 12.6 101700 70
2009-04-30 07:27:59 51°14.743 2°54.281 4.3 304 12.6 101700 70
2009-04-30 07:28:04 51°14.757 2°54.267 4.6 26 12.6 101700 69
2009-04-30 07:28:09 51°14.772 2°54.254 5.2 307 12.6 101700 69
2009-04-30 07:28:14 51°14.786 2°54.24 4.4 316 12.6 101700 69
2009-04-30 07:28:19 51°14.801 2°54.227 4.3 308 12.6 101700 69
2009-04-30 07:28:24 51°14.815 2°54.214 4.4 26 12.5 101700 69
2009-04-30 07:28:29 51°14.83 2°54.201 4.6 304 12.5 101700 69
2009-04-30 07:28:34 51°14.845 2°54.188 5.3 25 12.5 101700 70
2009-04-30 07:28:39 51°14.86 2°54.175 5.2 301 12.5 101700 70
2009-04-30 07:28:44 51°14.874 2°54.161 5.1 22 12.5 101700 70
2009-04-30 07:28:49 51°14.889 2°54.148 4.4 304 12.5 101700 70
2009-04-30 07:28:54 51°14.904 2°54.135 5.2 315 12.5 101700 70
2009-04-30 07:28:59 51°14.918 2°54.121 4.5 302 12.5 101700 70
2009-04-30 07:29:03 51°14.93 2°54.11 4.2 22 12.5 101700 70
2009-04-30 07:29:09 51°14.947 2°54.095 5.4 303 12.5 101700 70
2009-04-30 07:29:14 51°14.962 2°54.081 4.1 316 12.5 101700 70
2009-04-30 07:29:19 51°14.977 2°54.068 4.1 301 12.5 101700 70
2009-04-30 07:29:23 51°14.988 2°54.057 3.9 316 12.4 101700 70
2009-04-30 07:29:29 51°15.006 2°54.041 4.3 303 12.4 101700 70
2009-04-30 07:29:34 51°15.021 2°54.028 4.4 317 12.4 101710 70
2009-04-30 07:29:39 51°15.035 2°54.015 4.5 305 12.4 101710 70
2009-04-30 07:29:43 51°15.047 2°54.005 5.3 317 12.4 101710 71
2009-04-30 07:29:49 51°15.065 2°53.99 4.9 306 12.4 101710 71
2009-04-30 07:29:54 51°15.081 2°53.978 5 317 12.4 101700 71
2009-04-30 07:29:59 51°15.096 2°53.965 4 301 12.4 101700 71
2009-04-30 07:30:04 51°15.111 2°53.953 4.3 317 12.4 101700 71
2009-04-30 07:30:09 51°15.126 2°53.94 4.8 310 12.4 101700 71
2009-04-30 07:30:14 51°15.141 2°53.928 4.1 317 12.4 101700 71
2009-04-30 07:30:19 51°15.156 2°53.916 4.7 309 12.4 101700 71
2009-04-30 07:30:24 51°15.171 2°53.904 5 318 12.4 101710 71
2009-04-30 07:30:29 51°15.185 2°53.891 4.9 301 12.4 101710 71
2009-04-30 07:30:34 51°15.2 2°53.878 4.9 21 12.4 101710 72
2009-04-30 07:30:39 51°15.215 2°53.865 4.8 309 12.4 101710 72
2009-04-30 07:30:44 51°15.23 2°53.853 4.1 316 12.3 101710 72
2009-04-30 07:30:49 51°15.245 2°53.841 5.2 284 12.3 101710 72
2009-04-30 07:30:54 51°15.26 2°53.828 5.1 23 12.3 101710 72
2009-04-30 07:30:59 51°15.275 2°53.815 4.6 303 12.3 101710 72
2009-04-30 07:31:03 51°15.287 2°53.805 4.1 315 12.3 101710 72
2009-04-30 07:31:09 51°15.304 2°53.79 4.5 303 12.3 101710 72
2009-04-30 07:31:14 51°15.319 2°53.778 5 317 12.3 101700 73
2009-04-30 07:31:19 51°15.334 2°53.765 5.7 303 12.3 101700 73
2009-04-30 07:31:24 51°15.349 2°53.753 5.7 319 12.3 101700 73
2009-04-30 07:31:29 51°15.364 2°53.741 5.3 302 12.3 101700 73
2009-04-30 07:31:34 51°15.379 2°53.729 4.7 317 12.3 101710 73
2009-04-30 07:31:39 51°15.394 2°53.716 5.3 310 12.3 101710 73
2009-04-30 07:31:43 51°15.405 2°53.706 5.1 316 12.3 101710 73
2009-04-30 07:31:49 51°15.423 2°53.691 5.3 301 12.3 101710 73
2009-04-30 07:31:54 51°15.438 2°53.679 6.3 318 12.3 101710 73
2009-04-30 07:31:59 51°15.452 2°53.667 5 308 12.3 101710 73
2009-04-30 07:32:03 51°15.464 2°53.657 5.3 317 12.3 101710 73
2009-04-30 07:32:09 51°15.482 2°53.643 5.2 309 12.3 101710 73
2009-04-30 07:32:14 51°15.496 2°53.631 5.1 316 12.3 101710 73
2009-04-30 07:32:19 51°15.511 2°53.619 5.2 305 12.3 101710 73
2009-04-30 07:32:24 51°15.526 2°53.608 5.1 316 12.3 101710 74
2009-04-30 07:32:29 51°15.541 2°53.597 6 305 12.3 101710 74
2009-04-30 07:32:34 51°15.556 2°53.585 4.9 317 12.3 101700 73
2009-04-30 07:32:39 51°15.57 2°53.574 6.7 308 12.3 101700 73
2009-04-30 07:32:44 51°15.585 2°53.562 6.2 315 12.2 101700 73
2009-04-30 07:32:49 51°15.6 2°53.551 4.9 308 12.2 101700 73
2009-04-30 07:32:54 51°15.615 2°53.539 5 316 12.2 101700 73
2009-04-30 07:32:59 51°15.63 2°53.528 6.2 305 12.2 101700 73
2009-04-30 07:33:04 51°15.645 2°53.517 6.1 316 12.2 101710 73
2009-04-30 07:33:09 51°15.66 2°53.506 5.9 307 12.2 101710 73
2009-04-30 07:33:14 51°15.675 2°53.496 5.8 26 12.2 101710 73
2009-04-30 07:33:19 51°15.691 2°53.486 5.7 304 12.2 101710 73
2009-04-30 07:33:23 51°15.704 2°53.479 4.7 18 12.2 101710 73
2009-04-30 07:33:29 51°15.723 2°53.466 5.4 304 12.2 101710 73
2009-04-30 07:33:34 51°15.738 2°53.456 5.4 25 12.2 101710 73
2009-04-30 07:33:39 51°15.753 2°53.446 4.5 310 12.2 101710 73
2009-04-30 07:33:44 51°15.769 2°53.435 4.4 22 12.1 101710 73
2009-04-30 07:33:49 51°15.784 2°53.425 4.4 302 12.1 101710 73
2009-04-30 07:33:54 51°15.799 2°53.415 5.4 22 12.1 101710 73
2009-04-30 07:33:59 51°15.815 2°53.404 5.3 303 12.1 101710 73
2009-04-30 07:34:03 51°15.827 2°53.396 5.6 27 12.1 101710 73
2009-04-30 07:34:09 51°15.846 2°53.384 4.6 303 12.1 101710 73
2009-04-30 07:34:14 51°15.862 2°53.373 5.7 315 12.1 101710 74
2009-04-30 07:34:19 51°15.877 2°53.362 4.8 305 12.1 101710 74
2009-04-30 07:34:24 51°15.893 2°53.352 4.9 315 12.1 101710 74
2009-04-30 07:34:29 51°15.908 2°53.341 5.5 304 12.1 101710 74
2009-04-30 07:34:34 51°15.923 2°53.33 5 316 12.1 101710 74
2009-04-30 07:34:39 51°15.939 2°53.319 5.3 307 12.1 101710 74
2009-04-30 07:34:44 51°15.954 2°53.309 6 316 12.1 101700 74
2009-04-30 07:34:49 51°15.97 2°53.298 4.7 303 12.1 101700 74
2009-04-30 07:34:54 51°15.986 2°53.287 5.2 317 12.1 101710 74
2009-04-30 07:34:59 51°16.001 2°53.276 5.2 304 12.1 101710 74
2009-04-30 07:35:03 51°16.014 2°53.268 5.9 317 12 101710 75
2009-04-30 07:35:09 51°16.032 2°53.256 6.4 304 12 101710 75
2009-04-30 07:35:14 51°16.048 2°53.245 5.3 317 12 101700 75
2009-04-30 07:35:19 51°16.064 2°53.235 6.6 303 12 101700 75
2009-04-30 07:35:24 51°16.079 2°53.224 5.3 317 12 101710 75
2009-04-30 07:35:29 51°16.094 2°53.213 5.9 305 12 101710 75
2009-04-30 07:35:34 51°16.11 2°53.202 5.9 316 12 101710 75
2009-04-30 07:35:39 51°16.126 2°53.192 5.4 307 12 101710 75
2009-04-30 07:35:43 51°16.138 2°53.183 5.2 317 12 101710 76
2009-04-30 07:35:49 51°16.157 2°53.171 5.2 308 12 101710 76
2009-04-30 07:35:54 51°16.173 2°53.162 5.4 316 12 101710 76
2009-04-30 07:35:59 51°16.189 2°53.154 5.8 305 12 101710 76
2009-04-30 07:36:03 51°16.201 2°53.148 4.9 320 11.9 101710 76
2009-04-30 07:36:09 51°16.221 2°53.142 4.5 303 11.9 101710 76
2009-04-30 07:36:14 51°16.237 2°53.136 4.5 321 11.9 101710 76
2009-04-30 07:36:19 51°16.254 2°53.132 5.1 303 11.9 101710 76
2009-04-30 07:36:23 51°16.267 2°53.128 4.9 318 11.9 101710 76
2009-04-30 07:36:29 51°16.287 2°53.125 4.8 307 11.9 101710 76
2009-04-30 07:36:34 51°16.303 2°53.124 4 318 11.9 101710 76
2009-04-30 07:36:39 51°16.32 2°53.123 3.8 300 11.9 101710 76
2009-04-30 07:36:44 51°16.336 2°53.123 4.4 319 11.9 101710 77
2009-04-30 07:36:49 51°16.353 2°53.123 3.6 305 11.9 101710 77
2009-04-30 07:36:54 51°16.369 2°53.124 3.5 322 11.9 101710 77
2009-04-30 07:36:59 51°16.386 2°53.125 3.9 301 11.9 101710 77
2009-04-30 07:37:04 51°16.403 2°53.126 3.9 318 11.9 101720 77
2009-04-30 07:37:09 51°16.419 2°53.127 3.3 303 11.9 101720 77
2009-04-30 07:37:14 51°16.436 2°53.129 3.2 319 11.9 101710 77
2009-04-30 07:37:19 51°16.452 2°53.13 3.9 303 11.9 101710 77
2009-04-30 07:37:24 51°16.469 2°53.131 4 322 11.9 101720 77
2009-04-30 07:37:29 51°16.485 2°53.132 3.2 303 11.9 101720 77
2009-04-30 07:37:34 51°16.502 2°53.132 3.3 322 11.9 101720 77
2009-04-30 07:37:39 51°16.518 2°53.133 3.8 308 11.9 101720 77
2009-04-30 07:37:44 51°16.535 2°53.133 3.8 321 11.9 101720 77
2009-04-30 07:37:49 51°16.551 2°53.134 3.8 306 11.9 101720 77
2009-04-30 07:37:54 51°16.568 2°53.135 3.3 322 11.9 101710 77
2009-04-30 07:37:59 51°16.584 2°53.135 3.6 304 11.9 101710 77
2009-04-30 07:38:04 51°16.601 2°53.135 3.4 321 11.8 101720 77
2009-04-30 07:38:09 51°16.618 2°53.136 3.9 303 11.8 101720 77
2009-04-30 07:38:14 51°16.634 2°53.136 3.8 321 11.8 101710 77
2009-04-30 07:38:19 51°16.651 2°53.137 4.1 306 11.8 101710 77
2009-04-30 07:38:23 51°16.664 2°53.137 4.3 322 11.8 101720 77
2009-04-30 07:38:29 51°16.684 2°53.138 3.7 308 11.8 101720 77
2009-04-30 07:38:34 51°16.701 2°53.138 3.5 323 11.8 101720 77
2009-04-30 07:38:39 51°16.717 2°53.139 4.4 303 11.8 101720 77
2009-04-30 07:38:44 51°16.734 2°53.139 3.6 320 11.8 101710 77
2009-04-30 07:38:49 51°16.751 2°53.14 3.5 301 11.8 101710 77
2009-04-30 07:38:54 51°16.767 2°53.14 4 318 11.8 101710 77
2009-04-30 07:38:59 51°16.784 2°53.141 4.8 301 11.8 101710 77
2009-04-30 07:39:04 51°16.801 2°53.142 4.1 322 11.8 101720 77
2009-04-30 07:39:09 51°16.817 2°53.142 3.7 304 11.8 101720 77
2009-04-30 07:39:14 51°16.834 2°53.143 3.9 320 11.8 101710 77
2009-04-30 07:39:19 51°16.851 2°53.143 4 304 11.8 101710 77
2009-04-30 07:39:23 51°16.864 2°53.144 3.8 318 11.8 101720 77
2009-04-30 07:39:29 51°16.884 2°53.144 4.1 307 11.8 101720 77
2009-04-30 07:39:34 51°16.9 2°53.145 4.3 317 11.8 101710 78
2009-04-30 07:39:39 51°16.916 2°53.145 4 309 11.8 101710 78
2009-04-30 07:39:44 51°16.933 2°53.145 3.5 318 11.8 101720 78
2009-04-30 07:39:49 51°16.949 2°53.145 3.7 310 11.8 101720 78
2009-04-30 07:39:54 51°16.965 2°53.146 3.4 321 11.8 101720 78
2009-04-30 07:39:59 51°16.982 2°53.147 3.4 310 11.8 101720 78
2009-04-30 07:40:04 51°16.998 2°53.148 4 321 11.8 101720 76
2009-04-30 07:40:09 51°17.015 2°53.148 4 304 11.8 101720 76
2009-04-30 07:40:14 51°17.031 2°53.149 3.7 318 11.8 101720 76
2009-04-30 07:40:19 51°17.048 2°53.149 3.2 320 11.8 101720 76
2009-04-30 07:40:23 51°17.061 2°53.15 4 320 11.8 101720 76
2009-04-30 07:40:29 51°17.081 2°53.15 3.8 322 11.8 101720 76
2009-04-30 07:40:34 51°17.098 2°53.15 3.8 321 11.8 101720 76
2009-04-30 07:40:39 51°17.114 2°53.15 3.2 307 11.8 101720 76
2009-04-30 07:40:43 51°17.128 2°53.15 3.1 323 11.8 101720 76
2009-04-30 07:40:49 51°17.148 2°53.151 3 304 11.8 101720 76
2009-04-30 07:40:54 51°17.164 2°53.152 3 324 11.8 101720 75
2009-04-30 07:40:59 51°17.181 2°53.155 4 303 11.8 101720 75
2009-04-30 07:41:04 51°17.198 2°53.157 3.7 326 11.8 101720 75
2009-04-30 07:41:09 51°17.214 2°53.161 3.1 304 11.8 101720 75
2009-04-30 07:41:14 51°17.23 2°53.164 3.6 325 11.8 101720 75
2009-04-30 07:41:19 51°17.247 2°53.169 3.2 303 11.8 101720 75
2009-04-30 07:41:24 51°17.263 2°53.173 3.3 324 11.8 101720 75
2009-04-30 07:41:29 51°17.279 2°53.178 2.9 300 11.8 101720 75
2009-04-30 07:41:34 51°17.295 2°53.186 3 328 11.8 101720 75
2009-04-30 07:41:39 51°17.311 2°53.192 3.4 330 11.8 101720 75
2009-04-30 07:41:44 51°17.327 2°53.2 3 332 11.8 101720 75
2009-04-30 07:41:49 51°17.342 2°53.208 3.7 330 11.8 101720 75
2009-04-30 07:41:54 51°17.358 2°53.216 3.2 334 11.8 101720 75
2009-04-30 07:41:59 51°17.373 2°53.226 3.2 328 11.8 101720 75
2009-04-30 07:42:04 51°17.389 2°53.235 4.1 333 11.8 101720 75
2009-04-30 07:42:09 51°17.404 2°53.245 3 331 11.8 101720 75
2009-04-30 07:42:14 51°17.419 2°53.255 3.6 334 11.8 101720 75
2009-04-30 07:42:19 51°17.434 2°53.266 3.4 334 11.8 101720 75
2009-04-30 07:42:24 51°17.449 2°53.277 3.8 334 11.8 101720 75
2009-04-30 07:42:29 51°17.463 2°53.29 3.4 332 11.8 101720 75
2009-04-30 07:42:34 51°17.478 2°53.302 3.9 337 11.8 101720 75
2009-04-30 07:42:39 51°17.492 2°53.315 4.2 331 11.8 101720 75
2009-04-30 07:42:43 51°17.504 2°53.325 3.4 333 11.8 101720 75
2009-04-30 07:42:49 51°17.521 2°53.341 4 333 11.8 101720 75
2009-04-30 07:42:54 51°17.535 2°53.355 3.4 333 11.8 101720 77
2009-04-30 07:42:59 51°17.549 2°53.368 3.6 333 11.8 101720 77
2009-04-30 07:43:03 51°17.561 2°53.379 4.4 330 11.8 101720 77
2009-04-30 07:43:09 51°17.578 2°53.395 3.8 333 11.8 101720 77
2009-04-30 07:43:14 51°17.592 2°53.408 3.5 332 11.8 101720 77
2009-04-30 07:43:19 51°17.606 2°53.422 3.3 331 11.8 101720 77
2009-04-30 07:43:24 51°17.62 2°53.435 3.3 329 11.8 101720 78
2009-04-30 07:43:29 51°17.635 2°53.448 3.9 331 11.8 101720 78
2009-04-30 07:43:34 51°17.649 2°53.461 3.4 330 11.8 101720 78
2009-04-30 07:43:39 51°17.663 2°53.474 3.5 331 11.8 101720 78
2009-04-30 07:43:43 51°17.674 2°53.484 4.1 332 11.8 101720 78
2009-04-30 07:43:49 51°17.691 2°53.5 4.1 279 11.8 101720 78
2009-04-30 07:43:54 51°17.706 2°53.513 3.9 331 11.8 101720 78
2009-04-30 07:43:59 51°17.72 2°53.525 3.8 332 11.8 101720 78
2009-04-30 07:44:04 51°17.734 2°53.538 4.1 333 11.8 101720 78
2009-04-30 07:44:09 51°17.749 2°53.551 3.8 333 11.8 101720 78
2009-04-30 07:44:14 51°17.763 2°53.564 3.7 332 11.8 101720 78
2009-04-30 07:44:19 51°17.777 2°53.576 3.9 331 11.8 101720 78
2009-04-30 07:44:24 51°17.791 2°53.589 3.3 332 11.8 101720 78
2009-04-30 07:44:29 51°17.806 2°53.602 3.9 334 11.8 101720 78
2009-04-30 07:44:34 51°17.82 2°53.614 3.5 337 11.8 101720 78
2009-04-30 07:44:39 51°17.834 2°53.628 4 332 11.8 101720 78
2009-04-30 07:44:44 51°17.848 2°53.641 3.6 334 11.8 101720 78
2009-04-30 07:44:49 51°17.862 2°53.654 4 335 11.8 101720 78
2009-04-30 07:44:54 51°17.876 2°53.667 4.2 334 11.8 101720 78
2009-04-30 07:44:59 51°17.891 2°53.681 4.1 337 11.8 101720 78
2009-04-30 07:45:03 51°17.902 2°53.691 4.1 335 11.8 101720 78
2009-04-30 07:45:09 51°17.919 2°53.707 4.6 336 11.8 101720 78
2009-04-30 07:45:14 51°17.933 2°53.72 4.2 336 11.8 101720 78
2009-04-30 07:45:19 51°17.947 2°53.733 3.8 335 11.8 101720 78
2009-04-30 07:45:24 51°17.962 2°53.745 3.3 335 11.8 101720 77
2009-04-30 07:45:29 51°17.976 2°53.757 3.4 335 11.8 101720 77
2009-04-30 07:45:34 51°17.991 2°53.769 4 334 11.8 101720 77
2009-04-30 07:45:39 51°18.005 2°53.781 3.5 334 11.8 101720 77
2009-04-30 07:45:44 51°18.02 2°53.794 3.3 333 11.8 101720 77
2009-04-30 07:45:49 51°18.034 2°53.806 3.6 283 11.8 101720 77
2009-04-30 07:45:54 51°18.048 2°53.82 4.1 337 11.7 101720 77
2009-04-30 07:45:59 51°18.063 2°53.832 3.2 338 11.7 101720 77
2009-04-30 07:46:04 51°18.077 2°53.845 4.1 336 11.8 101730 77
2009-04-30 07:46:09 51°18.091 2°53.858 4.3 336 11.8 101730 77
2009-04-30 07:46:14 51°18.105 2°53.87 4.1 338 11.8 101720 77
2009-04-30 07:46:19 51°18.119 2°53.884 3.4 338 11.8 101720 77
2009-04-30 07:46:24 51°18.133 2°53.897 3.7 341 11.8 101720 78
2009-04-30 07:46:29 51°18.146 2°53.913 3.8 336 11.8 101720 78
2009-04-30 07:46:34 51°18.16 2°53.927 3.9 342 11.7 101720 78
2009-04-30 07:46:39 51°18.172 2°53.943 4.3 338 11.7 101720 78
2009-04-30 07:46:44 51°18.186 2°53.958 4.4 339 11.7 101720 77
2009-04-30 07:46:49 51°18.198 2°53.975 4.4 340 11.7 101720 77
2009-04-30 07:46:54 51°18.211 2°53.991 4.4 339 11.7 101720 77
2009-04-30 07:46:59 51°18.223 2°54.007 4.1 340 11.7 101720 77
2009-04-30 07:47:04 51°18.236 2°54.023 3.9 339 11.7 101720 77
2009-04-30 07:47:09 51°18.248 2°54.04 4.1 342 11.7 101720 77
2009-04-30 07:47:14 51°18.261 2°54.057 3.9 341 11.7 101720 78
2009-04-30 07:47:19 51°18.273 2°54.073 4 341 11.7 101720 78
2009-04-30 07:47:23 51°18.283 2°54.087 4.9 342 11.7 101720 78
2009-04-30 07:47:29 51°18.298 2°54.107 4.1 341 11.7 101720 78
2009-04-30 07:47:34 51°18.31 2°54.124 4.1 340 11.6 101720 78
2009-04-30 07:47:39 51°18.322 2°54.14 4.7 341 11.6 101720 78
2009-04-30 07:47:44 51°18.334 2°54.157 4 340 11.6 101720 78
2009-04-30 07:47:49 51°18.346 2°54.174 3.9 283 11.6 101720 78
2009-04-30 07:47:54 51°18.358 2°54.19 4.1 342 11.6 101720 78
2009-04-30 07:47:59 51°18.37 2°54.207 4.3 340 11.6 101720 78
2009-04-30 07:48:03 51°18.38 2°54.22 4.6 341 11.6 101720 78
2009-04-30 07:48:09 51°18.394 2°54.241 5 339 11.6 101720 78
2009-04-30 07:48:14 51°18.406 2°54.258 4.3 342 11.6 101720 78
2009-04-30 07:48:19 51°18.417 2°54.276 4.5 339 11.6 101720 78
2009-04-30 07:48:24 51°18.428 2°54.294 4.8 341 11.5 101720 79
2009-04-30 07:48:29 51°18.439 2°54.312 4.8 341 11.5 101720 79
2009-04-30 07:48:34 51°18.45 2°54.331 4.8 341 11.6 101720 79
2009-04-30 07:48:39 51°18.461 2°54.349 4.9 341 11.6 101720 79
2009-04-30 07:48:44 51°18.47 2°54.369 4.5 340 11.5 101720 79
2009-04-30 07:48:49 51°18.48 2°54.389 5.1 342 11.5 101720 79
2009-04-30 07:48:54 51°18.489 2°54.409 4.9 340 11.5 101730 79
2009-04-30 07:48:59 51°18.498 2°54.429 4.4 342 11.5 101730 79
2009-04-30 07:49:03 51°18.505 2°54.446 4.5 341 11.5 101720 79
2009-04-30 07:49:09 51°18.515 2°54.472 5.4 342 11.5 101720 79
2009-04-30 07:49:14 51°18.522 2°54.494 4.5 342 11.5 101730 79
2009-04-30 07:49:19 51°18.53 2°54.515 5.5 341 11.5 101730 79
2009-04-30 07:49:24 51°18.538 2°54.537 5.2 343 11.5 101730 79
2009-04-30 07:49:29 51°18.546 2°54.559 4.4 340 11.5 101730 79
2009-04-30 07:49:34 51°18.553 2°54.582 4.3 341 11.5 101720 80
2009-04-30 07:49:39 51°18.56 2°54.604 5.3 340 11.5 101720 80
2009-04-30 07:49:44 51°18.567 2°54.626 5.1 341 11.5 101720 80
2009-04-30 07:49:49 51°18.575 2°54.649 5.4 278 11.5 101720 80
2009-04-30 07:49:54 51°18.582 2°54.671 5.3 342 11.5 101720 80
2009-04-30 07:49:59 51°18.59 2°54.693 5.4 341 11.5 101720 80
2009-04-30 07:50:04 51°18.598 2°54.715 5.1 340 11.5 101720 80
2009-04-30 07:50:09 51°18.606 2°54.737 5.2 341 11.5 101720 80
2009-04-30 07:50:14 51°18.614 2°54.759 5.4 339 11.5 101720 80
2009-04-30 07:50:19 51°18.621 2°54.782 4.8 340 11.5 101720 80
2009-04-30 07:50:23 51°18.627 2°54.8 4.7 342 11.5 101720 80
2009-04-30 07:50:29 51°18.636 2°54.827 5.6 341 11.5 101720 80
2009-04-30 07:50:34 51°18.644 2°54.849 4.7 340 11.5 101720 80
2009-04-30 07:50:39 51°18.651 2°54.872 5.8 341 11.5 101720 80
2009-04-30 07:50:44 51°18.659 2°54.895 4.9 339 11.5 101720 80
2009-04-30 07:50:49 51°18.667 2°54.917 5.1 341 11.5 101720 80
2009-04-30 07:50:54 51°18.674 2°54.94 4.7 341 11.5 101720 80
2009-04-30 07:50:59 51°18.681 2°54.963 6.1 340 11.5 101720 80
2009-04-30 07:51:04 51°18.688 2°54.986 5.2 341 11.5 101720 79
2009-04-30 07:51:09 51°18.695 2°55.009 5.7 341 11.5 101720 79
2009-04-30 07:51:14 51°18.702 2°55.032 5.1 340 11.5 101730 80
2009-04-30 07:51:19 51°18.708 2°55.055 5.1 340 11.5 101730 80
2009-04-30 07:51:24 51°18.715 2°55.079 5.8 340 11.6 101730 80
2009-04-30 07:51:29 51°18.721 2°55.102 4.8 342 11.6 101730 80
2009-04-30 07:51:34 51°18.728 2°55.125 5.8 339 11.6 101720 79
2009-04-30 07:51:39 51°18.735 2°55.148 5.2 341 11.6 101720 79
2009-04-30 07:51:43 51°18.74 2°55.166 5.9 343 11.6 101720 80
2009-04-30 07:51:49 51°18.748 2°55.194 5.6 343 11.6 101720 80
2009-04-30 07:51:54 51°18.755 2°55.217 5.1 342 11.6 101720 80
2009-04-30 07:51:59 51°18.761 2°55.24 5 342 11.6 101720 80
2009-04-30 07:52:03 51°18.766 2°55.258 5.1 342 11.6 101720 80
2009-04-30 07:52:09 51°18.774 2°55.286 5.6 279 11.6 101720 80
2009-04-30 07:52:14 51°18.781 2°55.309 5 340 11.6 101720 79
2009-04-30 07:52:19 51°18.788 2°55.332 4.7 342 11.6 101720 79
2009-04-30 07:52:23 51°18.794 2°55.35 5.3 342 11.6 101720 79
2009-04-30 07:52:29 51°18.801 2°55.378 5.5 340 11.6 101720 79
2009-04-30 07:52:34 51°18.808 2°55.401 4.8 342 11.6 101720 79
2009-04-30 07:52:39 51°18.815 2°55.424 5.4 339 11.6 101720 79
2009-04-30 07:52:43 51°18.82 2°55.442 4.9 342 11.6 101720 78
2009-04-30 07:52:49 51°18.828 2°55.47 5.7 341 11.6 101720 78
2009-04-30 07:52:54 51°18.835 2°55.493 5.5 342 11.6 101720 78
2009-04-30 07:52:59 51°18.842 2°55.516 4.6 339 11.6 101720 78
2009-04-30 07:53:04 51°18.849 2°55.539 5.4 340 11.6 101720 79
2009-04-30 07:53:09 51°18.855 2°55.562 4.9 341 11.6 101720 79
2009-04-30 07:53:14 51°18.862 2°55.584 4.9 341 11.6 101720 79
2009-04-30 07:53:18 51°18.868 2°55.602 5.6 342 11.6 101720 79
2009-04-30 07:53:24 51°18.876 2°55.63 5.4 343 11.6 101720 79
2009-04-30 07:53:29 51°18.883 2°55.653 5 340 11.6 101720 79
2009-04-30 07:53:34 51°18.89 2°55.676 5.4 342 11.7 101720 79
2009-04-30 07:53:39 51°18.897 2°55.699 5.2 339 11.7 101720 79
2009-04-30 07:53:44 51°18.904 2°55.722 5.3 343 11.7 101720 78
2009-04-30 07:53:49 51°18.91 2°55.745 4.8 285 11.7 101720 78
2009-04-30 07:53:54 51°18.917 2°55.767 5.8 341 11.7 101720 78
2009-04-30 07:53:59 51°18.924 2°55.79 6 339 11.7 101720 78
2009-04-30 07:54:03 51°18.93 2°55.808 5.7 339 11.7 101720 78
2009-04-30 07:54:09 51°18.938 2°55.836 6.2 338 11.7 101720 78
2009-04-30 07:54:14 51°18.945 2°55.858 5.7 341 11.7 101720 78
2009-04-30 07:54:19 51°18.951 2°55.881 4.9 340 11.7 101720 78
2009-04-30 07:54:24 51°18.958 2°55.903 4.7 341 11.7 101720 78
2009-04-30 07:54:29 51°18.965 2°55.926 5.1 338 11.7 101720 78
2009-04-30 07:54:34 51°18.972 2°55.949 4.7 340 11.7 101720 78
2009-04-30 07:54:39 51°18.978 2°55.971 5.3 341 11.7 101720 78
2009-04-30 07:54:43 51°18.984 2°55.99 4.8 340 11.7 101730 77
2009-04-30 07:54:49 51°18.992 2°56.017 5.1 341 11.7 101730 77
2009-04-30 07:54:54 51°18.998 2°56.04 5 340 11.7 101720 77
2009-04-30 07:54:59 51°19.004 2°56.064 5.1 340 11.7 101720 77
2009-04-30 07:55:03 51°19.009 2°56.082 5.3 340 11.7 101730 77
2009-04-30 07:55:09 51°19.016 2°56.11 4.9 339 11.7 101730 77
2009-04-30 07:55:14 51°19.022 2°56.133 5.4 341 11.7 101720 77
2009-04-30 07:55:19 51°19.029 2°56.156 5 339 11.7 101720 77
2009-04-30 07:55:24 51°19.035 2°56.18 5.6 339 11.8 101730 77
2009-04-30 07:55:29 51°19.041 2°56.203 4.7 338 11.8 101730 77
2009-04-30 07:55:34 51°19.047 2°56.226 5.5 338 11.8 101720 77
2009-04-30 07:55:39 51°19.053 2°56.249 4.8 338 11.8 101720 77
2009-04-30 07:55:44 51°19.06 2°56.272 4.8 339 11.8 101730 77
2009-04-30 07:55:49 51°19.066 2°56.295 5.4 285 11.8 101730 77
2009-04-30 07:55:54 51°19.073 2°56.318 5.5 338 11.8 101720 76
2009-04-30 07:55:59 51°19.08 2°56.34 5.1 336 11.8 101720 76
2009-04-30 07:56:04 51°19.086 2°56.363 5.6 337 11.8 101720 76
2009-04-30 07:56:09 51°19.093 2°56.386 5.5 337 11.8 101720 76
2009-04-30 07:56:14 51°19.1 2°56.409 5.4 337 11.8 101730 76
2009-04-30 07:56:19 51°19.107 2°56.431 4.8 337 11.8 101730 76
2009-04-30 07:56:23 51°19.112 2°56.449 5.3 336 11.8 101730 76
2009-04-30 07:56:29 51°19.121 2°56.476 4.9 283 11.8 101730 76
2009-04-30 07:56:34 51°19.128 2°56.498 5.2 337 11.8 101730 76
2009-04-30 07:56:39 51°19.135 2°56.521 5.3 338 11.8 101730 76
2009-04-30 07:56:43 51°19.14 2°56.539 5.6 335 11.8 101730 76
2009-04-30 07:56:49 51°19.149 2°56.565 4.6 285 11.8 101730 76
2009-04-30 07:56:54 51°19.156 2°56.588 4.8 335 11.8 101730 75
2009-04-30 07:56:59 51°19.163 2°56.61 5 335 11.8 101730 75
2009-04-30 07:57:03 51°19.168 2°56.628 5.4 336 11.8 101730 75
2009-04-30 07:57:09 51°19.176 2°56.655 4.9 335 11.8 101730 75
2009-04-30 07:57:14 51°19.183 2°56.678 5.1 337 11.8 101730 75
2009-04-30 07:57:19 51°19.19 2°56.7 5.3 336 11.8 101730 75
2009-04-30 07:57:24 51°19.196 2°56.723 5.3 334 11.8 101730 75
2009-04-30 07:57:29 51°19.203 2°56.745 5.2 333 11.8 101730 75
2009-04-30 07:57:34 51°19.21 2°56.768 5.2 334 11.8 101730 75
2009-04-30 07:57:39 51°19.216 2°56.791 4.8 335 11.8 101730 75
2009-04-30 07:57:44 51°19.223 2°56.813 5.3 335 11.9 101730 75
2009-04-30 07:57:49 51°19.23 2°56.836 5.4 334 11.9 101730 75
2009-04-30 07:57:54 51°19.236 2°56.859 5.2 334 11.8 101730 75
2009-04-30 07:57:59 51°19.242 2°56.882 5.3 336 11.8 101730 75
2009-04-30 07:58:04 51°19.249 2°56.904 5.2 337 11.9 101730 75
2009-04-30 07:58:09 51°19.256 2°56.927 5.8 336 11.9 101730 75
2009-04-30 07:58:14 51°19.262 2°56.949 5.8 338 11.9 101730 75
2009-04-30 07:58:19 51°19.269 2°56.972 5.8 338 11.9 101730 75
2009-04-30 07:58:23 51°19.275 2°56.991 5.2 338 11.9 101730 76
2009-04-30 07:58:29 51°19.283 2°57.018 4.8 338 11.9 101730 76
2009-04-30 07:58:34 51°19.29 2°57.04 5.5 338 11.9 101730 76
2009-04-30 07:58:39 51°19.297 2°57.063 5.6 337 11.9 101730 76
2009-04-30 07:58:43 51°19.302 2°57.081 5.2 338 11.9 101730 76
2009-04-30 07:58:49 51°19.311 2°57.108 6.1 286 11.9 101730 76
2009-04-30 07:58:54 51°19.318 2°57.131 5 339 11.9 101730 77
2009-04-30 07:58:59 51°19.325 2°57.153 5.8 338 11.9 101730 77
2009-04-30 07:59:03 51°19.331 2°57.17 6.2 339 11.9 101730 77
2009-04-30 07:59:09 51°19.339 2°57.197 5.1 337 11.9 101730 77
2009-04-30 07:59:14 51°19.346 2°57.219 5.7 340 11.9 101730 77
2009-04-30 07:59:19 51°19.353 2°57.242 5.1 339 11.9 101730 77
2009-04-30 07:59:23 51°19.359 2°57.26 5.9 339 11.9 101730 77
2009-04-30 07:59:29 51°19.367 2°57.286 5.7 338 11.9 101730 77
2009-04-30 07:59:34 51°19.374 2°57.308 5.7 339 11.9 101730 77
2009-04-30 07:59:39 51°19.381 2°57.33 5.6 339 11.9 101730 77
2009-04-30 07:59:44 51°19.388 2°57.353 5.7 341 11.9 101730 77
2009-04-30 07:59:49 51°19.395 2°57.375 5.5 339 11.9 101730 77
2009-04-30 07:59:54 51°19.402 2°57.397 5.8 340 11.9 101730 77
2009-04-30 07:59:59 51°19.409 2°57.419 5.2 339 11.9 101730 77
2009-04-30 08:00:04 51°19.415 2°57.442 5.1 340 11.9 101730 77
2009-04-30 08:00:09 51°19.422 2°57.464 5 340 11.9 101730 77
2009-04-30 08:00:14 51°19.429 2°57.486 6.1 341 11.9 101730 77
2009-04-30 08:00:19 51°19.436 2°57.509 5.3 340 11.9 101730 77
2009-04-30 08:00:24 51°19.442 2°57.531 6.2 340 11.9 101730 77
2009-04-30 08:00:29 51°19.448 2°57.554 5.5 340 11.9 101730 77
2009-04-30 08:00:34 51°19.454 2°57.576 5.5 342 11.9 101730 77
2009-04-30 08:00:39 51°19.461 2°57.599 5.4 340 11.9 101730 77
2009-04-30 08:00:44 51°19.467 2°57.621 6.4 339 11.9 101730 77
2009-04-30 08:00:49 51°19.474 2°57.644 6.1 281 11.9 101730 77
2009-04-30 08:00:54 51°19.481 2°57.666 6 341 11.9 101730 77
2009-04-30 08:00:59 51°19.488 2°57.688 5.1 341 11.9 101730 77
2009-04-30 08:01:04 51°19.494 2°57.71 6 338 11.9 101730 77
2009-04-30 08:01:09 51°19.501 2°57.732 6 339 11.9 101730 77
2009-04-30 08:01:14 51°19.508 2°57.754 6.1 340 11.9 101730 77
2009-04-30 08:01:19 51°19.515 2°57.776 6 338 11.9 101730 77
2009-04-30 08:01:23 51°19.52 2°57.794 5.9 338 11.9 101730 77
2009-04-30 08:01:29 51°19.528 2°57.821 5.4 338 11.9 101730 77
2009-04-30 08:01:34 51°19.534 2°57.843 6.3 338 11.9 101730 77
2009-04-30 08:01:39 51°19.54 2°57.866 6.2 337 11.9 101730 77
2009-04-30 08:01:44 51°19.546 2°57.888 6.5 337 11.9 101730 77
2009-04-30 08:01:49 51°19.552 2°57.91 7 339 11.9 101730 77
2009-04-30 08:01:54 51°19.558 2°57.933 6.9 337 11.9 101730 78
2009-04-30 08:01:59 51°19.565 2°57.955 6.7 336 11.9 101730 78
2009-04-30 08:02:04 51°19.571 2°57.978 5.6 338 11.9 101720 78
2009-04-30 08:02:09 51°19.577 2°58 6.6 339 11.9 101720 78
2009-04-30 08:02:14 51°19.582 2°58.023 6.3 339 11.9 101730 78
2009-04-30 08:02:19 51°19.588 2°58.045 6.5 337 11.9 101730 78
2009-04-30 08:02:23 51°19.593 2°58.063 6.3 337 11.8 101730 78
2009-04-30 08:02:29 51°19.6 2°58.09 5.5 337 11.8 101730 78
2009-04-30 08:02:34 51°19.606 2°58.113 5.5 338 11.8 101730 78
2009-04-30 08:02:39 51°19.611 2°58.136 6.5 337 11.8 101730 78
2009-04-30 08:02:44 51°19.617 2°58.158 5.7 338 11.8 101730 78
2009-04-30 08:02:49 51°19.623 2°58.181 6.2 279 11.8 101730 78
2009-04-30 08:02:54 51°19.629 2°58.203 5.3 337 11.8 101720 78
2009-04-30 08:02:59 51°19.635 2°58.226 5.5 337 11.8 101720 78
2009-04-30 08:03:04 51°19.641 2°58.248 6.1 335 11.8 101730 78
2009-04-30 08:03:09 51°19.647 2°58.27 5.4 336 11.8 101730 78
2009-04-30 08:03:14 51°19.652 2°58.293 6 336 11.8 101730 78
2009-04-30 08:03:19 51°19.658 2°58.316 5.1 336 11.8 101730 78
2009-04-30 08:03:23 51°19.663 2°58.334 6.2 337 11.8 101730 78
2009-04-30 08:03:29 51°19.67 2°58.361 5.8 336 11.8 101730 78
2009-04-30 08:03:34 51°19.676 2°58.383 5 337 11.8 101730 79
2009-04-30 08:03:39 51°19.681 2°58.407 5.8 334 11.8 101730 79
2009-04-30 08:03:43 51°19.686 2°58.425 5.2 336 11.7 101730 79
2009-04-30 08:03:49 51°19.693 2°58.453 5.7 336 11.7 101730 79
2009-04-30 08:03:54 51°19.699 2°58.476 4.8 336 11.7 101730 79
2009-04-30 08:03:59 51°19.705 2°58.498 5.8 335 11.7 101730 79
2009-04-30 08:04:04 51°19.711 2°58.521 5.1 335 11.8 101730 79
2009-04-30 08:04:09 51°19.717 2°58.544 5.8 334 11.8 101730 79
2009-04-30 08:04:14 51°19.722 2°58.567 5.1 336 11.7 101730 79
2009-04-30 08:04:19 51°19.728 2°58.59 5.8 335 11.7 101730 79
2009-04-30 08:04:24 51°19.734 2°58.612 5 336 11.7 101730 79
2009-04-30 08:04:29 51°19.74 2°58.635 4.9 334 11.7 101730 79
2009-04-30 08:04:34 51°19.746 2°58.658 5.1 335 11.7 101730 79
2009-04-30 08:04:39 51°19.752 2°58.68 5.8 335 11.7 101730 79
2009-04-30 08:04:44 51°19.758 2°58.703 5.9 334 11.7 101730 79
2009-04-30 08:04:49 51°19.764 2°58.726 5.9 284 11.7 101730 79
2009-04-30 08:04:54 51°19.77 2°58.749 4.9 335 11.7 101730 79
2009-04-30 08:04:59 51°19.776 2°58.771 5.3 336 11.7 101730 79
2009-04-30 08:05:03 51°19.781 2°58.79 6.2 335 11.7 101730 80
2009-04-30 08:05:09 51°19.788 2°58.817 6 335 11.7 101730 80
2009-04-30 08:05:14 51°19.794 2°58.839 5.5 336 11.7 101730 80
2009-04-30 08:05:19 51°19.8 2°58.862 6.1 337 11.7 101730 80
2009-04-30 08:05:24 51°19.805 2°58.885 5.3 337 11.7 101730 80
2009-04-30 08:05:29 51°19.812 2°58.907 6 335 11.7 101730 80
2009-04-30 08:05:34 51°19.818 2°58.93 5.8 335 11.7 101730 80
2009-04-30 08:05:39 51°19.824 2°58.952 6.4 337 11.7 101730 80
2009-04-30 08:05:43 51°19.829 2°58.97 5.8 338 11.8 101730 80
2009-04-30 08:05:49 51°19.836 2°58.997 5.2 284 11.8 101730 80
2009-04-30 08:05:54 51°19.842 2°59.019 5.3 337 11.8 101730 80
2009-04-30 08:05:59 51°19.848 2°59.042 6.3 335 11.8 101730 80
2009-04-30 08:06:03 51°19.852 2°59.06 5.8 337 11.8 101730 81
2009-04-30 08:06:09 51°19.859 2°59.087 5.3 337 11.8 101730 81
2009-04-30 08:06:14 51°19.865 2°59.109 5.2 338 11.8 101730 80
2009-04-30 08:06:19 51°19.871 2°59.132 6.2 337 11.8 101730 80
2009-04-30 08:06:24 51°19.877 2°59.154 6.1 337 11.8 101730 80
2009-04-30 08:06:29 51°19.883 2°59.176 5.5 337 11.8 101730 80
2009-04-30 08:06:34 51°19.889 2°59.199 6.2 337 11.8 101730 80
2009-04-30 08:06:39 51°19.895 2°59.221 5.7 337 11.8 101730 80
2009-04-30 08:06:43 51°19.9 2°59.239 5.3 337 11.8 101730 79
2009-04-30 08:06:49 51°19.907 2°59.266 5.5 338 11.8 101730 79
2009-04-30 08:06:54 51°19.913 2°59.288 5.7 336 11.8 101730 80
2009-04-30 08:06:59 51°19.919 2°59.31 5.8 338 11.8 101730 80
2009-04-30 08:07:04 51°19.925 2°59.333 6.4 339 11.8 101730 79
2009-04-30 08:07:09 51°19.931 2°59.355 6.3 339 11.8 101730 79
2009-04-30 08:07:14 51°19.936 2°59.377 5.5 339 11.8 101730 79
2009-04-30 08:07:19 51°19.942 2°59.4 6.3 337 11.8 101730 79
2009-04-30 08:07:24 51°19.948 2°59.422 6.4 337 11.8 101730 80
2009-04-30 08:07:29 51°19.954 2°59.444 6.4 335 11.8 101730 80
2009-04-30 08:07:34 51°19.96 2°59.466 5.9 337 11.8 101730 79
2009-04-30 08:07:39 51°19.966 2°59.488 5.4 333 11.8 101730 79
2009-04-30 08:07:43 51°19.971 2°59.506 5.2 334 11.8 101730 79
2009-04-30 08:07:49 51°19.979 2°59.532 5.9 282 11.8 101730 79
2009-04-30 08:07:54 51°19.985 2°59.555 5.6 333 11.8 101730 79
2009-04-30 08:07:59 51°19.991 2°59.577 5.7 331 11.8 101730 79
2009-04-30 08:08:03 51°19.996 2°59.595 5.6 334 11.8 101730 79
2009-04-30 08:08:09 51°20.002 2°59.622 5.8 331 11.8 101730 79
2009-04-30 08:08:14 51°20.008 2°59.645 6.5 331 11.8 101730 78
2009-04-30 08:08:19 51°20.014 2°59.667 6.2 331 11.8 101730 78
2009-04-30 08:08:24 51°20.02 2°59.689 6 331 11.8 101730 78
2009-04-30 08:08:29 51°20.026 2°59.711 6.3 332 11.8 101730 78
2009-04-30 08:08:34 51°20.032 2°59.734 5.5 330 11.8 101730 78
2009-04-30 08:08:39 51°20.039 2°59.756 5.6 331 11.8 101730 78
2009-04-30 08:08:44 51°20.044 2°59.778 6 330 11.8 101730 78
2009-04-30 08:08:49 51°20.05 2°59.8 6.5 331 11.8 101730 78
2009-04-30 08:08:54 51°20.057 2°59.822 6 334 11.8 101730 78
2009-04-30 08:08:59 51°20.062 2°59.845 6.2 330 11.8 101730 78
2009-04-30 08:09:04 51°20.069 2°59.867 6.5 332 11.8 101730 78
2009-04-30 08:09:09 51°20.074 2°59.889 5.8 332 11.8 101730 78
2009-04-30 08:09:14 51°20.08 2°59.911 6.1 333 11.8 101730 78
2009-04-30 08:09:19 51°20.086 2°59.933 5.9 332 11.8 101730 78
2009-04-30 08:09:24 51°20.092 2°59.955 6 333 11.8 101730 78
2009-04-30 08:09:29 51°20.097 2°59.978 5.6 330 11.8 101730 78
2009-04-30 08:09:34 51°20.104 2°60 6.3 333 11.7 101730 78
2009-04-30 08:09:39 51°20.109 3°0.022 5.9 332 11.7 101730 78
2009-04-30 08:09:44 51°20.115 3°0.045 5.9 333 11.7 101730 78
2009-04-30 08:09:49 51°20.121 3°0.067 5.9 284 11.7 101730 78
2009-04-30 08:09:54 51°20.127 3°0.089 5.2 331 11.7 101730 78
2009-04-30 08:09:59 51°20.133 3°0.111 5.3 334 11.7 101730 78
2009-04-30 08:10:03 51°20.138 3°0.129 5.1 332 11.7 101730 78
2009-04-30 08:10:09 51°20.144 3°0.156 5.3 333 11.7 101730 78
2009-04-30 08:10:14 51°20.149 3°0.178 5.3 332 11.7 101730 78
2009-04-30 08:10:19 51°20.155 3°0.201 5.6 335 11.7 101730 78
2009-04-30 08:10:23 51°20.159 3°0.219 5.2 331 11.7 101730 78
2009-04-30 08:10:29 51°20.165 3°0.246 5.8 331 11.7 101730 78
2009-04-30 08:10:34 51°20.171 3°0.269 5.2 331 11.7 101730 78
2009-04-30 08:10:39 51°20.176 3°0.292 5.9 331 11.7 101730 78
2009-04-30 08:10:44 51°20.181 3°0.314 5.4 331 11.7 101730 78
2009-04-30 08:10:49 51°20.187 3°0.337 5.5 331 11.7 101730 78
2009-04-30 08:10:54 51°20.193 3°0.359 6 333 11.7 101730 78
2009-04-30 08:10:59 51°20.198 3°0.382 5.7 331 11.7 101730 78
2009-04-30 08:11:03 51°20.203 3°0.399 5.1 332 11.7 101730 78
2009-04-30 08:11:09 51°20.21 3°0.426 5.8 331 11.7 101730 78
2009-04-30 08:11:14 51°20.216 3°0.448 5.2 332 11.8 101730 78
2009-04-30 08:11:19 51°20.222 3°0.47 5.6 331 11.8 101730 78
2009-04-30 08:11:24 51°20.228 3°0.492 5.2 331 11.7 101730 78
2009-04-30 08:11:29 51°20.234 3°0.514 5.8 333 11.7 101730 78
2009-04-30 08:11:34 51°20.24 3°0.536 5.6 331 11.7 101730 78
2009-04-30 08:11:39 51°20.246 3°0.558 5 330 11.7 101730 78
2009-04-30 08:11:44 51°20.252 3°0.58 5.2 329 11.7 101730 77
2009-04-30 08:11:49 51°20.258 3°0.602 6 285 11.7 101730 77
2009-04-30 08:11:54 51°20.264 3°0.624 5.3 331 11.8 101730 77
2009-04-30 08:11:59 51°20.27 3°0.646 4.9 330 11.8 101730 77
2009-04-30 08:12:04 51°20.276 3°0.668 5.6 329 11.8 101730 77
2009-04-30 08:12:09 51°20.281 3°0.69 5.4 332 11.8 101730 77
2009-04-30 08:12:14 51°20.287 3°0.713 5.3 332 11.8 101730 77
2009-04-30 08:12:19 51°20.293 3°0.735 5.4 330 11.8 101730 77
2009-04-30 08:12:23 51°20.298 3°0.752 5.5 331 11.8 101730 77
2009-04-30 08:12:29 51°20.305 3°0.779 4.9 332 11.8 101730 77
2009-04-30 08:12:34 51°20.311 3°0.801 5.6 330 11.8 101730 77
2009-04-30 08:12:39 51°20.316 3°0.823 5.6 330 11.8 101730 77
2009-04-30 08:12:43 51°20.321 3°0.841 5.1 332 11.8 101730 77
2009-04-30 08:12:49 51°20.328 3°0.867 5.7 280 11.8 101730 77
2009-04-30 08:12:54 51°20.334 3°0.889 5.3 332 11.8 101730 77
2009-04-30 08:12:59 51°20.339 3°0.912 5.7 332 11.8 101730 77
2009-04-30 08:13:04 51°20.345 3°0.934 5.8 331 11.8 101730 77
2009-04-30 08:13:09 51°20.351 3°0.956 5.8 331 11.8 101730 77
2009-04-30 08:13:14 51°20.357 3°0.978 5.7 333 11.8 101730 77
2009-04-30 08:13:19 51°20.362 3°1 5 332 11.8 101730 77
2009-04-30 08:13:23 51°20.367 3°1.017 5 331 11.8 101740 77
2009-04-30 08:13:29 51°20.374 3°1.044 5.3 335 11.8 101740 77
2009-04-30 08:13:34 51°20.379 3°1.066 5.8 332 11.8 101740 77
2009-04-30 08:13:39 51°20.385 3°1.088 5.9 332 11.8 101740 77
2009-04-30 08:13:44 51°20.391 3°1.11 5.9 333 11.8 101730 77
2009-04-30 08:13:49 51°20.396 3°1.132 5.1 335 11.8 101730 77
2009-04-30 08:13:54 51°20.401 3°1.154 5 331 11.9 101730 77
2009-04-30 08:13:59 51°20.407 3°1.176 5.3 334 11.9 101730 77
2009-04-30 08:14:04 51°20.413 3°1.199 5.4 334 11.9 101730 77
2009-04-30 08:14:09 51°20.418 3°1.221 5.2 332 11.9 101730 77
2009-04-30 08:14:14 51°20.423 3°1.243 5.2 334 11.9 101730 77
2009-04-30 08:14:19 51°20.428 3°1.265 5.7 332 11.9 101730 77
2009-04-30 08:14:23 51°20.433 3°1.283 5.4 333 11.9 101730 77
2009-04-30 08:14:29 51°20.439 3°1.31 4.8 334 11.9 101730 77
2009-04-30 08:14:34 51°20.445 3°1.332 5.5 332 11.9 101730 77
2009-04-30 08:14:39 51°20.451 3°1.354 5.3 333 11.9 101730 77
2009-04-30 08:14:43 51°20.455 3°1.371 5.4 335 11.9 101730 77
2009-04-30 08:14:49 51°20.462 3°1.398 5.5 279 11.9 101730 77
2009-04-30 08:14:54 51°20.467 3°1.42 4.9 335 11.9 101730 78
2009-04-30 08:14:59 51°20.473 3°1.442 5 333 11.9 101730 78
2009-04-30 08:15:04 51°20.479 3°1.464 4.9 335 11.9 101730 78
2009-04-30 08:15:09 51°20.484 3°1.486 5 336 11.9 101730 78
2009-04-30 08:15:14 51°20.49 3°1.508 5.2 336 11.9 101730 78
2009-04-30 08:15:19 51°20.495 3°1.53 5.3 336 11.9 101730 78
2009-04-30 08:15:23 51°20.5 3°1.548 5.2 336 12 101740 79
2009-04-30 08:15:29 51°20.507 3°1.574 4.7 336 12 101740 79
2009-04-30 08:15:34 51°20.513 3°1.596 5 337 12 101730 79
2009-04-30 08:15:39 51°20.518 3°1.618 4.9 336 12 101730 79
2009-04-30 08:15:44 51°20.524 3°1.64 5.1 335 12 101730 78
2009-04-30 08:15:49 51°20.53 3°1.662 4.9 335 12 101730 78
2009-04-30 08:15:54 51°20.535 3°1.684 5.5 334 12 101730 78
2009-04-30 08:15:59 51°20.541 3°1.706 5.5 337 12 101730 78
2009-04-30 08:16:04 51°20.546 3°1.729 5.3 336 12 101740 78
2009-04-30 08:16:09 51°20.551 3°1.751 4.8 338 12 101740 78
2009-04-30 08:16:14 51°20.556 3°1.773 5 337 12 101740 78
2009-04-30 08:16:19 51°20.562 3°1.796 5.5 338 12 101740 78
2009-04-30 08:16:24 51°20.567 3°1.818 4.8 338 12 101740 78
2009-04-30 08:16:29 51°20.572 3°1.84 5.3 337 12 101740 78
2009-04-30 08:16:34 51°20.578 3°1.862 4.7 338 12.1 101740 78
2009-04-30 08:16:39 51°20.584 3°1.884 5.6 338 12.1 101740 78
2009-04-30 08:16:43 51°20.589 3°1.902 4.9 337 12.1 101740 78
2009-04-30 08:16:49 51°20.595 3°1.928 5.5 279 12.1 101740 78
2009-04-30 08:16:54 51°20.601 3°1.95 5 337 12.1 101730 78
2009-04-30 08:16:59 51°20.607 3°1.972 4.9 338 12.1 101730 78
2009-04-30 08:17:03 51°20.611 3°1.989 5.7 336 12.1 101740 78
2009-04-30 08:17:09 51°20.619 3°2.016 4.8 338 12.1 101740 78
2009-04-30 08:17:14 51°20.624 3°2.038 6.1 336 12.1 101730 78
2009-04-30 08:17:19 51°20.63 3°2.06 5.1 337 12.1 101730 78
2009-04-30 08:17:24 51°20.636 3°2.082 5.2 337 12.1 101740 78
2009-04-30 08:17:29 51°20.642 3°2.103 5.4 336 12.1 101740 78
2009-04-30 08:17:34 51°20.647 3°2.126 5.8 336 12.1 101730 78
2009-04-30 08:17:39 51°20.653 3°2.147 5.7 337 12.1 101730 78
2009-04-30 08:17:43 51°20.658 3°2.165 5.6 338 12.1 101730 77
2009-04-30 08:17:49 51°20.664 3°2.191 5.4 337 12.1 101730 77
2009-04-30 08:17:54 51°20.67 3°2.213 5 334 12.1 101730 77
2009-04-30 08:17:59 51°20.676 3°2.235 5.6 338 12.1 101730 77
2009-04-30 08:18:04 51°20.682 3°2.257 5.6 336 12.1 101740 77
2009-04-30 08:18:09 51°20.687 3°2.279 5.5 335 12.1 101740 77
2009-04-30 08:18:14 51°20.693 3°2.301 5.5 337 12.1 101740 77
2009-04-30 08:18:19 51°20.698 3°2.322 5.5 335 12.1 101740 77
2009-04-30 08:18:24 51°20.704 3°2.344 4.7 338 12.2 101730 77
2009-04-30 08:18:29 51°20.71 3°2.366 4.9 334 12.2 101730 77
2009-04-30 08:18:34 51°20.715 3°2.388 4.9 337 12.1 101730 77
2009-04-30 08:18:39 51°20.721 3°2.41 5.7 334 12.1 101730 77
2009-04-30 08:18:44 51°20.726 3°2.432 4.8 337 12.2 101740 77
2009-04-30 08:18:49 51°20.732 3°2.454 5.1 280 12.2 101740 77
2009-04-30 08:18:54 51°20.737 3°2.475 4.9 337 12.2 101730 77
2009-04-30 08:18:59 51°20.742 3°2.498 5 334 12.2 101730 77
2009-04-30 08:19:03 51°20.747 3°2.515 5 337 12.2 101730 77
2009-04-30 08:19:09 51°20.753 3°2.542 5.7 334 12.2 101730 77
2009-04-30 08:19:14 51°20.759 3°2.564 5.7 336 12.2 101730 76
2009-04-30 08:19:19 51°20.764 3°2.586 5.2 334 12.2 101730 76
2009-04-30 08:19:24 51°20.77 3°2.608 5.9 335 12.2 101730 77
2009-04-30 08:19:29 51°20.775 3°2.63 4.8 337 12.2 101730 77
2009-04-30 08:19:34 51°20.781 3°2.652 5.4 335 12.2 101730 77
2009-04-30 08:19:39 51°20.786 3°2.673 4.9 336 12.2 101730 77
2009-04-30 08:19:43 51°20.79 3°2.691 5.5 336 12.2 101740 77
2009-04-30 08:19:49 51°20.797 3°2.717 5.3 336 12.2 101740 77
2009-04-30 08:19:54 51°20.803 3°2.739 5.3 337 12.2 101730 76
2009-04-30 08:19:59 51°20.808 3°2.761 5.7 336 12.2 101730 76
2009-04-30 08:20:03 51°20.812 3°2.778 4.6 337 12.2 101740 77
2009-04-30 08:20:09 51°20.819 3°2.805 5.6 336 12.2 101740 77
2009-04-30 08:20:14 51°20.825 3°2.827 5.3 337 12.2 101740 77
2009-04-30 08:20:19 51°20.83 3°2.849 5.4 337 12.2 101740 77
2009-04-30 08:20:24 51°20.835 3°2.87 4.6 335 12.2 101740 77
2009-04-30 08:20:29 51°20.841 3°2.892 5.3 336 12.2 101740 77
2009-04-30 08:20:34 51°20.846 3°2.914 4.4 336 12.2 101740 77
2009-04-30 08:20:39 51°20.852 3°2.936 5.1 337 12.2 101740 77
2009-04-30 08:20:44 51°20.857 3°2.958 5.2 334 12.2 101740 77
2009-04-30 08:20:49 51°20.863 3°2.98 4.6 280 12.2 101740 77
2009-04-30 08:20:54 51°20.868 3°3.002 4.7 335 12.2 101740 78
2009-04-30 08:20:59 51°20.874 3°3.023 5.6 336 12.2 101740 78
2009-04-30 08:21:03 51°20.878 3°3.041 4.8 335 12.2 101740 78
2009-04-30 08:21:09 51°20.884 3°3.067 4.7 335 12.2 101740 78
2009-04-30 08:21:14 51°20.89 3°3.089 5.5 334 12.2 101740 78
2009-04-30 08:21:19 51°20.895 3°3.111 5.6 336 12.2 101740 78
2009-04-30 08:21:23 51°20.899 3°3.129 5.7 333 12.2 101740 78
2009-04-30 08:21:29 51°20.906 3°3.155 4.6 335 12.2 101740 78
2009-04-30 08:21:34 51°20.911 3°3.177 5.4 334 12.2 101740 78
2009-04-30 08:21:39 51°20.916 3°3.199 5.4 335 12.2 101740 78
2009-04-30 08:21:44 51°20.922 3°3.221 4.6 334 12.2 101740 78
2009-04-30 08:21:49 51°20.927 3°3.243 5.6 336 12.2 101740 78
2009-04-30 08:21:54 51°20.933 3°3.265 4.6 334 12.2 101740 78
2009-04-30 08:21:59 51°20.938 3°3.288 4.6 334 12.2 101740 78
2009-04-30 08:22:03 51°20.943 3°3.305 4.8 335 12.2 101740 78
2009-04-30 08:22:09 51°20.949 3°3.332 4.9 334 12.2 101740 78
2009-04-30 08:22:14 51°20.954 3°3.354 5.5 336 12.2 101740 78
2009-04-30 08:22:19 51°20.959 3°3.377 5.4 333 12.2 101740 78
2009-04-30 08:22:24 51°20.965 3°3.399 4.8 335 12.2 101740 78
2009-04-30 08:22:29 51°20.969 3°3.421 5.4 334 12.2 101740 78
2009-04-30 08:22:34 51°20.975 3°3.444 4.7 334 12.2 101740 78
2009-04-30 08:22:39 51°20.98 3°3.466 5.4 335 12.2 101740 78
2009-04-30 08:22:44 51°20.985 3°3.488 4.6 334 12.2 101730 78
2009-04-30 08:22:49 51°20.991 3°3.51 4.7 279 12.2 101730 78
2009-04-30 08:22:54 51°20.996 3°3.532 4.8 335 12.2 101740 78
2009-04-30 08:22:59 51°21.001 3°3.555 4.7 335 12.2 101740 78
2009-04-30 08:23:04 51°21.007 3°3.577 4.7 336 12.2 101740 78
2009-04-30 08:23:09 51°21.012 3°3.599 5.7 333 12.2 101740 78
2009-04-30 08:23:14 51°21.018 3°3.621 5.3 334 12.2 101740 78
2009-04-30 08:23:19 51°21.024 3°3.643 4.8 333 12.2 101740 78
2009-04-30 08:23:24 51°21.029 3°3.665 5.5 334 12.2 101740 78
2009-04-30 08:23:29 51°21.035 3°3.687 5.4 335 12.2 101740 78
2009-04-30 08:23:34 51°21.04 3°3.709 5.6 333 12.2 101740 78
2009-04-30 08:23:39 51°21.046 3°3.731 5 333 12.2 101740 78
2009-04-30 08:23:43 51°21.05 3°3.749 4.9 333 12.2 101730 78
2009-04-30 08:23:49 51°21.057 3°3.775 4.9 334 12.2 101730 78
2009-04-30 08:23:54 51°21.063 3°3.797 5.1 333 12.2 101740 78
2009-04-30 08:23:59 51°21.068 3°3.819 5.6 334 12.2 101740 78
2009-04-30 08:24:04 51°21.074 3°3.841 4.9 333 12.2 101730 78
2009-04-30 08:24:09 51°21.079 3°3.863 5 334 12.2 101730 78
2009-04-30 08:24:14 51°21.084 3°3.886 4.8 333 12.2 101740 78
2009-04-30 08:24:19 51°21.09 3°3.907 5.6 334 12.2 101740 78
2009-04-30 08:24:23 51°21.094 3°3.925 5.1 333 12.2 101740 78
2009-04-30 08:24:29 51°21.1 3°3.952 5.5 334 12.2 101740 78
2009-04-30 08:24:34 51°21.105 3°3.975 5.3 333 12.2 101740 78
2009-04-30 08:24:39 51°21.11 3°3.997 5.1 333 12.2 101740 78
2009-04-30 08:24:44 51°21.115 3°4.019 5.8 333 12.2 101740 78
2009-04-30 08:24:49 51°21.121 3°4.041 5.9 280 12.2 101740 78
2009-04-30 08:24:54 51°21.126 3°4.064 5.1 333 12.2 101740 78
2009-04-30 08:24:59 51°21.131 3°4.086 4.9 333 12.2 101740 78
2009-04-30 08:25:04 51°21.136 3°4.109 4.8 334 12.2 101740 78
2009-04-30 08:25:09 51°21.141 3°4.131 5.1 333 12.2 101740 78
2009-04-30 08:25:14 51°21.146 3°4.153 5.7 332 12.2 101740 78
2009-04-30 08:25:19 51°21.151 3°4.176 5.6 333 12.2 101740 78
2009-04-30 08:25:24 51°21.156 3°4.198 4.8 334 12.2 101740 78
2009-04-30 08:25:29 51°21.162 3°4.22 4.9 333 12.2 101740 78
2009-04-30 08:25:34 51°21.167 3°4.242 4.9 332 12.2 101740 78
2009-04-30 08:25:39 51°21.172 3°4.264 5.3 333 12.2 101740 78
2009-04-30 08:25:44 51°21.178 3°4.286 5.6 332 12.2 101730 78
2009-04-30 08:25:49 51°21.184 3°4.308 5.2 334 12.2 101730 78
2009-04-30 08:25:54 51°21.189 3°4.33 4.8 332 12.2 101740 78
2009-04-30 08:25:59 51°21.194 3°4.353 4.7 332 12.2 101740 78
2009-04-30 08:26:04 51°21.2 3°4.375 4.7 333 12.2 101740 78
2009-04-30 08:26:09 51°21.206 3°4.397 4.6 332 12.2 101740 78
2009-04-30 08:26:14 51°21.211 3°4.419 4.6 330 12.2 101740 78
2009-04-30 08:26:19 51°21.217 3°4.44 5.1 334 12.2 101740 78
2009-04-30 08:26:23 51°21.221 3°4.458 4.5 331 12.2 101740 77
2009-04-30 08:26:29 51°21.228 3°4.484 5.2 334 12.2 101740 77
2009-04-30 08:26:34 51°21.234 3°4.505 5.1 331 12.2 101740 77
2009-04-30 08:26:39 51°21.24 3°4.527 5 334 12.2 101740 77
2009-04-30 08:26:44 51°21.245 3°4.548 4.6 332 12.2 101740 77
2009-04-30 08:26:49 51°21.251 3°4.57 5.1 280 12.2 101740 77
2009-04-30 08:26:54 51°21.257 3°4.591 4.7 331 12.2 101740 77
2009-04-30 08:26:59 51°21.262 3°4.613 5.1 333 12.2 101740 77
2009-04-30 08:27:04 51°21.267 3°4.635 4.4 333 12.2 101740 78
2009-04-30 08:27:09 51°21.273 3°4.656 4.4 334 12.2 101740 78
2009-04-30 08:27:14 51°21.278 3°4.678 5 334 12.2 101740 78
2009-04-30 08:27:19 51°21.283 3°4.7 5 332 12.2 101740 78
2009-04-30 08:27:24 51°21.289 3°4.721 5.2 334 12.2 101730 78
2009-04-30 08:27:29 51°21.294 3°4.743 5.1 334 12.2 101730 78
2009-04-30 08:27:34 51°21.3 3°4.765 5.2 334 12.2 101740 78
2009-04-30 08:27:39 51°21.305 3°4.786 5.1 333 12.2 101740 78
2009-04-30 08:27:44 51°21.311 3°4.808 5.2 335 12.3 101740 78
2009-04-30 08:27:49 51°21.316 3°4.83 5.1 335 12.3 101740 78
2009-04-30 08:27:54 51°21.322 3°4.852 5 333 12.3 101740 78
2009-04-30 08:27:59 51°21.327 3°4.873 5.1 335 12.3 101740 78
2009-04-30 08:28:04 51°21.332 3°4.895 5.1 334 12.3 101740 78
2009-04-30 08:28:09 51°21.337 3°4.917 5 334 12.3 101740 78
2009-04-30 08:28:14 51°21.342 3°4.94 4.8 334 12.3 101740 78
2009-04-30 08:28:19 51°21.347 3°4.962 5.1 334 12.3 101740 78
2009-04-30 08:28:24 51°21.352 3°4.984 5.1 333 12.3 101740 78
2009-04-30 08:28:29 51°21.357 3°5.005 4.7 336 12.3 101740 78
2009-04-30 08:28:34 51°21.361 3°5.027 4.5 332 12.3 101740 79
2009-04-30 08:28:39 51°21.368 3°5.048 5 335 12.3 101740 79
2009-04-30 08:28:43 51°21.372 3°5.066 4.5 334 12.3 101740 78
2009-04-30 08:28:49 51°21.378 3°5.092 5 334 12.3 101740 78
2009-04-30 08:28:54 51°21.383 3°5.113 5.1 333 12.3 101740 79
2009-04-30 08:28:59 51°21.388 3°5.135 4.9 332 12.3 101740 79
2009-04-30 08:29:04 51°21.393 3°5.157 5 333 12.3 101740 79
2009-04-30 08:29:09 51°21.398 3°5.178 5.5 332 12.3 101740 79
2009-04-30 08:29:14 51°21.403 3°5.2 4.8 332 12.4 101740 79
2009-04-30 08:29:19 51°21.408 3°5.222 4.9 332 12.4 101740 79
2009-04-30 08:29:24 51°21.413 3°5.243 4.7 334 12.4 101740 79
2009-04-30 08:29:29 51°21.418 3°5.265 5.3 332 12.4 101740 79
2009-04-30 08:29:34 51°21.423 3°5.287 5.1 333 12.4 101740 80
2009-04-30 08:29:39 51°21.428 3°5.308 5 333 12.4 101740 80
2009-04-30 08:29:44 51°21.433 3°5.33 5.1 333 12.3 101740 79
2009-04-30 08:29:49 51°21.438 3°5.351 5.1 284 12.3 101740 79
2009-04-30 08:29:54 51°21.444 3°5.373 5.1 334 12.4 101740 80
2009-04-30 08:29:59 51°21.448 3°5.395 4.8 333 12.4 101740 80
2009-04-30 08:30:04 51°21.453 3°5.416 4.6 333 12.4 101740 79
2009-04-30 08:30:09 51°21.458 3°5.438 4.8 334 12.4 101740 79
2009-04-30 08:30:14 51°21.464 3°5.46 4.9 335 12.4 101740 80
2009-04-30 08:30:19 51°21.469 3°5.481 4.7 335 12.4 101740 80
2009-04-30 08:30:24 51°21.474 3°5.503 5.3 334 12.4 101740 80
2009-04-30 08:30:29 51°21.479 3°5.525 5.1 335 12.4 101740 80
2009-04-30 08:30:34 51°21.484 3°5.547 4.8 334 12.4 101740 80
2009-04-30 08:30:39 51°21.489 3°5.569 5.4 333 12.4 101740 80
2009-04-30 08:30:43 51°21.493 3°5.586 4.8 333 12.4 101740 80
2009-04-30 08:30:49 51°21.499 3°5.612 5.1 334 12.4 101740 80
2009-04-30 08:30:54 51°21.504 3°5.634 4.9 334 12.4 101740 80
2009-04-30 08:30:59 51°21.509 3°5.656 5.6 333 12.4 101740 80
2009-04-30 08:31:03 51°21.513 3°5.673 5.3 333 12.4 101740 80
2009-04-30 08:31:09 51°21.52 3°5.7 5.3 333 12.4 101740 80
2009-04-30 08:31:14 51°21.525 3°5.721 5 333 12.4 101740 80
2009-04-30 08:31:19 51°21.53 3°5.743 4.7 331 12.4 101740 80
2009-04-30 08:31:24 51°21.536 3°5.764 4.7 334 12.4 101740 80
2009-04-30 08:31:29 51°21.541 3°5.785 5.1 331 12.4 101740 80
2009-04-30 08:31:34 51°21.547 3°5.806 5 332 12.4 101740 80
2009-04-30 08:31:39 51°21.553 3°5.826 4.4 331 12.4 101740 80
2009-04-30 08:31:44 51°21.558 3°5.846 4.5 332 12.4 101740 80
2009-04-30 08:31:49 51°21.564 3°5.864 4.4 278 12.4 101740 80
2009-04-30 08:31:54 51°21.569 3°5.882 4.5 330 12.4 101740 80
2009-04-30 08:31:59 51°21.574 3°5.9 4.2 332 12.4 101740 80
2009-04-30 08:32:04 51°21.578 3°5.917 3.9 331 12.4 101740 80
2009-04-30 08:32:09 51°21.582 3°5.933 3.4 332 12.4 101740 80
2009-04-30 08:32:14 51°21.586 3°5.948 3.2 331 12.4 101740 80
2009-04-30 08:32:19 51°21.59 3°5.963 2.6 334 12.4 101740 80
2009-04-30 08:32:23 51°21.592 3°5.975 3 333 12.4 101740 80
2009-04-30 08:32:29 51°21.596 3°5.991 2.9 334 12.4 101740 80
2009-04-30 08:32:34 51°21.599 3°6.005 2.7 334 12.4 101740 80
2009-04-30 08:32:39 51°21.603 3°6.018 2.9 334 12.4 101740 80
2009-04-30 08:32:44 51°21.606 3°6.031 2.9 333 12.4 101740 80
2009-04-30 08:32:49 51°21.609 3°6.043 2.6 334 12.4 101740 80
2009-04-30 08:32:54 51°21.611 3°6.056 2.6 333 12.4 101750 80
2009-04-30 08:32:59 51°21.615 3°6.068 2.7 335 12.4 101750 80
2009-04-30 08:33:03 51°21.617 3°6.078 2.7 332 12.4 101740 80
2009-04-30 08:33:09 51°21.621 3°6.092 2.7 333 12.4 101740 80
2009-04-30 08:33:14 51°21.624 3°6.103 2.6 333 12.4 101750 80
2009-04-30 08:33:19 51°21.627 3°6.114 2.2 332 12.4 101750 80
2009-04-30 08:33:24 51°21.63 3°6.126 2.5 331 12.4 101740 80
2009-04-30 08:33:29 51°21.633 3°6.137 2.2 331 12.4 101740 80
2009-04-30 08:33:34 51°21.636 3°6.147 2.3 332 12.4 101740 80
2009-04-30 08:33:39 51°21.639 3°6.158 2.4 328 12.4 101740 80
2009-04-30 08:33:44 51°21.642 3°6.17 2.4 329 12.5 101750 79
2009-04-30 08:33:49 51°21.646 3°6.182 2.3 283 12.5 101750 79
2009-04-30 08:33:54 51°21.65 3°6.194 2.4 331 12.5 101750 79
2009-04-30 08:33:59 51°21.653 3°6.206 2.9 332 12.5 101750 79
2009-04-30 08:34:04 51°21.657 3°6.219 2.6 332 12.5 101740 79
2009-04-30 08:34:09 51°21.66 3°6.232 2.8 331 12.5 101740 79
2009-04-30 08:34:14 51°21.664 3°6.245 2.6 331 12.5 101740 79
2009-04-30 08:34:19 51°21.668 3°6.259 2.8 331 12.5 101740 79
2009-04-30 08:34:24 51°21.672 3°6.273 3.3 332 12.5 101750 79
2009-04-30 08:34:29 51°21.676 3°6.289 3.3 331 12.5 101750 79
2009-04-30 08:34:34 51°21.68 3°6.305 3.4 332 12.5 101750 79
2009-04-30 08:34:39 51°21.685 3°6.323 4.3 331 12.5 101750 79
2009-04-30 08:34:44 51°21.69 3°6.341 4.4 332 12.5 101740 79
2009-04-30 08:34:49 51°21.695 3°6.36 4.6 286 12.5 101740 79
2009-04-30 08:34:54 51°21.7 3°6.38 4.2 332 12.6 101740 79
2009-04-30 08:34:59 51°21.705 3°6.4 4.6 329 12.6 101740 79
2009-04-30 08:35:03 51°21.71 3°6.416 4.9 331 12.6 101740 78
2009-04-30 08:35:09 51°21.716 3°6.441 4.9 330 12.6 101740 78
2009-04-30 08:35:14 51°21.722 3°6.462 5 329 12.6 101740 78
2009-04-30 08:35:19 51°21.728 3°6.483 4.5 330 12.6 101740 78
2009-04-30 08:35:23 51°21.732 3°6.499 5.1 330 12.6 101740 78
2009-04-30 08:35:29 51°21.739 3°6.525 5.3 331 12.6 101740 78
2009-04-30 08:35:34 51°21.745 3°6.546 5 331 12.6 101740 78
2009-04-30 08:35:39 51°21.75 3°6.567 5.3 331 12.6 101740 78
2009-04-30 08:35:44 51°21.755 3°6.589 4.7 331 12.5 101740 78
2009-04-30 08:35:49 51°21.759 3°6.611 5.2 331 12.5 101740 78
2009-04-30 08:35:54 51°21.763 3°6.633 5.1 332 12.6 101750 78